DW8722 Weather Reports


Display with metric or nautical units.
time (UTC)temp
F
wind
direction
speed
MPH
gust
MPH
rain 1hr
in
rain 24hr
in
rain mn
in
humidity
%
barometer
mb
20260505002206 77 193 10.0 26.0 0.00 0.00 0.00 65 1005.5
20260505001225 77 173 10.0 19.0 0.00 0.00 0.00 64 1005.6
20260505000218 77 191 10.0 23.0 0.00 0.00 0.00 63 1005.4
20260504234059 78 194 11.0 27.0 0.00 0.00 0.00 62 1005.7
20260504233058 78 206 13.0 27.0 0.00 0.00 0.00 61 1005.8
20260504225842 80 200 12.0 26.0 0.00 0.00 0.00 59 1006.4
20260504224810 80 183 15.0 30.0 0.00 0.00 0.00 58 1006.3
20260504223803 80 180 14.0 30.0 0.00 0.00 0.00 59 1006.3
20260504222821 80 170 13.0 26.0 0.00 0.00 0.00 58 1006.4
20260504221805 79 133 16.0 29.0 0.00 0.00 0.00 58 1006.5
20260504220809 80 167 16.0 29.0 0.00 0.00 0.00 56 1006.7
20260504215833 80 192 13.0 25.0 0.00 0.00 0.00 55 1006.7
20260504214815 80 173 13.0 25.0 0.00 0.00 0.00 56 1006.9
20260504213811 80 202 12.0 29.0 0.00 0.00 0.00 55 1006.9
20260504212744 80 178 15.0 29.0 0.00 0.00 0.00 54 1007.0
20260504210633 80 188 14.0 26.0 0.00 0.00 0.00 53 1007.5
20260504205624 80 147 12.0 25.0 0.00 0.00 0.00 55 1007.6
20260504204601 80 179 12.0 24.0 0.00 0.00 0.00 55 1007.8
20260504203554 80 146 13.0 24.0 0.00 0.00 0.00 54 1008.0
20260504202604 80 187 13.0 28.0 0.00 0.00 0.00 53 1008.2
20260504201546 79 172 15.0 28.0 0.00 0.00 0.00 53 1008.4
20260504195351 79 178 14.0 24.0 0.00 0.00 0.00 52 1008.9
20260504193211 79 185 13.0 27.0 0.00 0.00 0.00 50 1009.3
20260504192212 79 192 12.0 27.0 0.00 0.00 0.00 52 1009.4
20260504190013 78 180 13.0 28.0 0.00 0.00 0.00 53 1009.8
20260504185000 78 167 13.0 28.0 0.00 0.00 0.00 51 1009.7
20260504184025 78 182 11.0 23.0 0.00 0.00 0.00 52 1009.8
20260504183041 77 207 12.0 24.0 0.00 0.00 0.00 52 1010.0
20260504182045 77 221 13.0 25.0 0.00 0.00 0.00 53 1010.2
20260504181040 76 207 12.0 25.0 0.00 0.00 0.00 57 1010.4
20260504180031 76 173 15.0 27.0 0.00 0.00 0.00 54 1010.5
20260504175022 76 210 14.0 27.0 0.00 0.00 0.00 54 1010.7
20260504172911 74 204 15.0 29.0 0.00 0.00 0.00 56 1011.2
20260504171918 74 218 15.0 29.0 0.00 0.00 0.00 56 1011.4
20260504170919 74 202 15.0 29.0 0.00 0.00 0.00 56 1011.8
20260504150602 69 185 14.0 28.0 0.00 0.00 0.00 67 1012.6
20260504110306 61 183 4.0 10.0 0.00 0.00 0.00 79 1012.6
20260504100134 62 169 3.0 7.0 0.00 0.00 0.00 76 1012.8
20260504080459 61 173 3.0 5.0 0.00 0.00 0.00 72 1013.6
20260504070334 62 182 4.0 9.0 0.00 0.00 0.00 69 1014.2
20260504045950 63 177 3.0 6.0 0.00 0.00 0.00 67 1015.5
20260504044939 63 183 4.0 6.0 0.00 0.00 0.00 67 1015.6
20260504043947 63 178 3.0 6.0 0.00 0.00 0.00 66 1015.6
20260504042929 63 181 3.0 7.0 0.00 0.00 0.00 65 1015.6
20260504041927 64 184 3.0 7.0 0.00 0.00 0.00 64 1015.6
20260504035834 64 180 3.0 7.0 0.00 0.00 0.00 63 1015.6
20260504034843 64 180 3.0 7.0 0.00 0.00 0.00 62 1015.7
20260504033845 64 186 3.0 7.0 0.00 0.00 0.00 62 1015.7
20260504032905 65 180 2.0 5.0 0.00 0.00 0.00 60 1015.6
20260504031918 65 175 3.0 6.0 0.00 0.00 0.00 59 1015.4
20260504030925 66 180 3.0 6.0 0.00 0.00 0.00 58 1015.5
20260504024751 67 173 3.0 6.0 0.00 0.00 0.00 56 1015.4
20260504023734 68 175 4.0 10.0 0.00 0.00 0.00 54 1015.5
20260504022732 68 184 5.0 10.0 0.00 0.00 0.00 54 1015.4
20260504021749 68 164 4.0 9.0 0.00 0.00 0.00 53 1015.3
20260504020810 69 180 4.0 7.0 0.00 0.00 0.00 52 1015.3
20260504015818 69 161 4.0 8.0 0.00 0.00 0.00 51 1015.3
20260504014759 70 178 4.0 11.0 0.00 0.00 0.00 50 1015.2
20260504013802 70 179 4.0 11.0 0.00 0.00 0.00 49 1015.2
20260504012750 71 178 4.0 8.0 0.00 0.00 0.00 49 1015.1
20260504011725 72 189 4.0 9.0 0.00 0.00 0.00 48 1015.0
20260504010727 73 157 5.0 10.0 0.00 0.00 0.00 47 1015.0
20260504005703 74 190 6.0 10.0 0.00 0.00 0.00 46 1014.9
20260504004717 75 174 5.0 13.0 0.00 0.00 0.00 45 1014.9
20260504003732 76 173 7.0 14.0 0.00 0.00 0.00 44 1014.9
20260504002709 76 184 8.0 14.0 0.00 0.00 0.00 44 1014.9